Home   Weather   Davis   Past weeks

Flag for USA Past Weather in Davis, California, USA — Yesterday and Last 2 Weeks

Now
94 °F

Sunny.


Feels Like: 90 °F
Forecast: 61 / 96 °F
Wind: 6 mph from South

Location: Sacramento International Airport

Current Time: Sep 25, 2016 at 5:26:32 PM

Latest Report: Sep 25, 2016 at 4:53 PM


Visibility: 10 mi

Pressure: 29.96 "Hg

Humidity: 18%

Dew Point: 44 °F

Location of DavisLocation

Past Weather in Davis — Graph

°F

Davis Temperature Yesterday

Maximum temperature yesterday: 91 °F (at 3:53 PM)
Minimum temperature yesterday: 52 °F (at 5:53 AM)
Average temperature yesterday: 70 °F

High & Low Weather Summary for the Past Weeks

 TemperatureHumidityPressure
High98 °F (Sep 19, 3:53 PM)89% (Sep 13, 5:53 AM)30.13 "Hg (Sep 13, 5:53 AM)
Low48 °F (Sep 23, 4:53 AM)10% (Sep 20, 3:53 PM)29.74 "Hg (Sep 12, 5:53 PM)
Average69 °F51%29.93 "Hg
* Reported Sep 10 3:53 PM — Sep 25 3:53 PM, Davis, Weather by CustomWeather, © 2016

Note: Actual official high and low records may vary slightly from our data, if they occured in-between our weather recording intervals... More about our weather records

Advertising

Davis Weather History for the Previous 24 Hours

Scroll right to see more
 ConditionsComfort  
Time TempWeatherWind HumidityBarometerVisibility
3:53 PM
Sun, Sep 25
93 °FSunny.No wind18%29.98 "Hg10 mi
2:53 PM90 °FSunny.No wind22%29.99 "Hg10 mi
1:53 PM89 °FSunny.6 mph19%30.01 "Hg10 mi
12:53 PM86 °FSunny.6 mph20%30.04 "Hg10 mi
11:53 AM83 °FSunny.5 mph24%30.06 "Hg10 mi
10:53 AM78 °FSunny.5 mph25%30.07 "Hg10 mi
9:53 AM75 °FSunny.6 mph28%30.07 "Hg10 mi
8:53 AM67 °FSunny.3 mph44%30.06 "Hg10 mi
7:53 AM56 °FSunny.5 mph75%30.05 "Hg10 mi
6:53 AM52 °FClear.3 mph80%30.04 "Hg10 mi
5:53 AM51 °FClear.3 mph83%30.03 "Hg10 mi
4:53 AM56 °FClear.No wind72%30.02 "Hg10 mi
3:53 AM56 °FClear.3 mph72%30.02 "Hg10 mi
2:53 AM56 °FClear.No wind75%30.03 "Hg10 mi
1:53 AM58 °FClear.5 mph70%30.03 "Hg10 mi
12:53 AM60 °FClear.No wind65%30.02 "Hg10 mi
11:53 PM
Sat, Sep 24
58 °FClear.No wind70%30.01 "Hg10 mi
10:53 PM65 °FClear.No wind51%30.01 "Hg10 mi
9:53 PM70 °FClear.6 mph41%30.01 "Hg10 mi
8:53 PM71 °FClear.6 mph41%30.01 "Hg10 mi
7:53 PM74 °FClear.No wind38%30.00 "Hg10 mi
6:53 PM82 °FSunny.5 mph23%29.99 "Hg10 mi
5:53 PM90 °FSunny.7 mph17%29.99 "Hg10 mi
Weather by CustomWeather, © 2016

See weather overviewHow to use our weather pages